DMSP 5D-2 F11 DEB, 29071

Orbit data source: Space-Track

DMSP 5D-2 F11 DEB, 29071 is space debris in SSO originally from a launch on Thu, 28 Nov 1991 UTC launched from the Air Force Western Test Range (AFWTR). Debris objects in space refer to the collection of defunct objects orbiting the Earth. Examples of debris include non-operational satellites, rocket bodies, and fragments generated from explosions, collisions, or faulty payload assembly.

Loading next visibility...
Identifier
29071, 1991-082BS
Orbit
SSO
Country
Flag of USUS
Related business
Manufacturer
Unknown
Mission
Spacecraft
Bus & Motor
Unknown
Mass
Unknown
Launch date (UTC)
1991-11-28 (34 years ago)
Launch vehicle
Unknown
Launch site
Air Force Western Test Range (AFWTR)
Object type
Payload
Rocket body
Debris
Shape & HBR
Unknown shape, 0.1 m
Radar Cross Section
Small (<0.1 m²)

Expand to show TLE details & history
Last TLE update: 7 hours ago

TLE from 7 hours ago
0 DMSP 5D-2 F11 DEB
1 29071U 91082BS  26121.43292524  .00005549  00000-0  18240-2 0  9992
2 29071  98.9442 192.6516 0069020 326.3937  33.2880 14.37325152124944
Epoch: 2026-05-01T10:23Z
TLE epoch observation values (Epoch: 2026-05-01T10:23:24.740Z)
Latitude
-0.00004°
Longitude
177.43327°
Altitude
729.15 km
Speed
7.512 km/s
True Right ascension
12h 50m 36s
True Declination
0° 00' 00"
Sunlit
Object was in full shadow at epoch
Visualization orbit readout
Latitude
Unknown
Longitude
Unknown
Altitude
Unknown
Speed
Unknown
Apparent Right ascension
Unknown
Apparent Declination
Unknown
Sunlit
N/A
Visualization observer readout
Local Sidereal Time
01:16:33
Azimuth
Unknown
Elevation
Unknown
Doppler factor
Unknown
Orbital elements
Apogee altitude
813.795 km
Perigee altitude
715.198 km
Semi-major axis
7,142.634 km
Eccentricity
0.0069
Inclination
98.9442°
RAAN
192.6516°
Arg. of periapsis
326.3937°
True anomaly
33.72524°
Mean anomaly
33.288°
Eccentric anomaly
33.5063°
Mean motion
3.59547 °/min
Orbital period
100.13 mins
BSTAR
0.001824
Loading maneuver chart data...
Computing Atmospheric mass density...
Loading historical data...
Loading historical data...
Loading historical data...
Loading historical data...
Loading historical data...
Loading historical data...
Loading historical data...

Documentation

Showing up to 5 results
|